This is the latest recevied weather packets stored in our database for station/object HB9FHL-13. If no packets are shown the sender has not sent any weather packets the latest 1 day(s).
| Time | Temp. | Humidity | Pressure | Rain* | Wind** | Luminosity | Snow |
|---|---|---|---|---|---|---|---|
| 1778013439 | 12.78° C | - | 1007.8 hPa | 0 mm | 2.68 m/s, 222° | - | - |
| 1778013138 | 12.78° C | - | 1010.6 hPa | 0 mm | 3.13 m/s, 242° | - | - |
| 1778012537 | 12.78° C | - | 1011.7 hPa | 0 mm | 3.13 m/s, 235° | - | - |
| 1778012236 | 12.22° C | - | 1007.7 hPa | 0 mm | 2.68 m/s, 215° | - | - |
| 1778011936 | 12.22° C | - | 1004.2 hPa | 0 mm | 2.68 m/s, 231° | - | - |
| 1778011635 | 12.78° C | - | 1008 hPa | 0 mm | 2.24 m/s, 229° | - | - |
| 1778011335 | 12.78° C | - | 1012.6 hPa | 0 mm | 2.24 m/s, 222° | - | - |
| 1778011317 | 12.78° C | - | 1009.5 hPa | 0 mm | 3.13 m/s, 243° | - | - |
| 1778011034 | 12.78° C | - | 1009.5 hPa | 0 mm | 3.13 m/s, 243° | - | - |
| 1778010979 | 12.22° C | - | 1008.4 hPa | 0 mm | 3.13 m/s, 222° | - | - |
| 1778010734 | 12.22° C | - | 1008.4 hPa | 0 mm | 3.13 m/s, 222° | - | - |
| 1778010434 | 12.22° C | - | 1001.5 hPa | 0 mm | 2.68 m/s, 212° | - | - |
| 1778010133 | 11.67° C | - | 1008.1 hPa | 0 mm | 2.24 m/s, 215° | - | - |
| 1778009833 | 12.22° C | - | 1007.4 hPa | 0 mm | 2.24 m/s, 214° | - | - |
| 1778009532 | 12.78° C | - | 1007.2 hPa | 0 mm | 2.68 m/s, 240° | - | - |
| 1778009232 | 12.78° C | - | 1012.2 hPa | 0 mm | 3.13 m/s, 242° | - | - |
| 1778008931 | 13.33° C | - | 1011.3 hPa | 0 mm | 3.13 m/s, 200° | - | - |
| 1778008631 | 12.78° C | - | 1010.6 hPa | 0 mm | 2.68 m/s, 233° | - | - |
| 1778008330 | 12.78° C | - | 1004.5 hPa | 0 mm | 2.68 m/s, 225° | - | - |
| 1778008030 | 13.33° C | - | 1009.5 hPa | 0 mm | 2.68 m/s, 229° | - | - |
| 1778007729 | 11.67° C | - | 1014.2 hPa | 0 mm | 2.68 m/s, 226° | - | - |
| 1778007429 | 11.11° C | - | 1004.8 hPa | 0 mm | 2.68 m/s, 226° | - | - |
| 1778007128 | 11.67° C | - | 1004.6 hPa | 0 mm | 2.24 m/s, 215° | - | - |
| 1778006828 | 12.22° C | - | 1002.7 hPa | 0 mm | 3.13 m/s, 226° | - | - |
| 1778006527 | 12.22° C | - | 1004.9 hPa | 0 mm | 3.58 m/s, 232° | - | - |
* Rain since midnight (hover to see other rain measurements)
** Current wind speed in m/s (hover to see current wind gust speed)